GFSGBSN_925_spd_102.txt.gz
Wind_Speed
7 8 9 9 10 12 13 15 18 21 22 22 21 21 22 22 23 24 26 29 31 32 30 27 26 22 15 4 10 19 19 16 5 7 9 5 5 5 6 6 4 6 4 5 7 7 6
7 8 9 10 10 10 11 14 18 20 22 22 22 22 24 25 24 25 28 31 33 34 32 27 24 20 10 13 16 13 10 8 6 8 7 7 6 7 4 6 8 3 11 16 8 11 5
9 9 11 12 13 12 12 16 18 19 21 20 22 24 24 26 27 28 28 32 33 37 36 28 23 19 15 26 14 12 19 17 10 5 3 10 16 3 4 2 6 5 10 8 6 5 7
9 9 10 11 12 14 14 16 16 19 18 19 21 22 23 24 25 27 29 31 36 40 41 34 21 15 11 19 23 28 28 29 27 28 20 15 7 5 5 4 5 3 3 3 3 10 6
8 9 9 11 12 14 15 15 16 18 18 18 19 22 24 25 25 28 28 32 39 46 38 22 10 8 13 11 10 23 23 13 11 21 16 9 6 6 3 6 3 3 4 5 2 8 5
8 9 11 11 13 14 16 16 18 19 19 20 21 22 25 27 29 28 27 33 41 19 5 10 5 3 9 6 5 5 4 14 4 8 3 5 3 4 4 5 12 7 4 4 4 2 3
9 9 10 11 12 13 14 15 17 18 19 20 21 22 24 27 27 23 25 21 6 3 3 6 6 6 8 11 4 2 2 5 3 3 8 5 5 11 8 9 5 2 5 5 1 3 3
9 10 11 11 12 12 13 14 16 17 18 20 21 23 23 23 24 24 25 2 6 9 13 14 20 22 36 22 10 16 3 5 5 6 6 3 18 7 8 7 6 6 6 5 4 6 5
8 10 10 12 12 13 13 15 16 17 18 19 19 20 23 24 24 19 10 10 20 21 8 10 10 9 10 17 14 22 4 2 4 7 10 7 4 11 12 7 9 6 9 3 8 4 3
8 9 11 12 13 13 14 15 17 17 18 18 20 22 23 24 12 11 15 11 23 29 5 6 5 6 6 7 7 11 18 7 5 10 6 7 7 5 7 8 7 10 8 9 6 2 3
9 9 10 11 12 13 14 15 17 17 18 19 20 22 22 15 11 3 19 23 21 13 5 1 3 5 5 7 5 4 7 1 9 7 6 6 3 8 10 6 8 5 8 8 6 5 1
8 9 11 11 12 13 14 15 15 16 18 19 19 21 20 13 10 16 16 26 10 2 5 8 3 0 3 5 3 3 4 2 3 2 0 5 1 3 7 5 8 5 3 3 2 3 3
11 9 9 10 11 13 14 15 16 18 18 20 21 21 18 11 5 13 19 7 6 3 9 9 6 7 3 5 1 3 5 5 5 5 6 0 10 2 3 3 2 3 5 1 1 1 5
8 9 9 10 12 13 14 15 16 17 18 19 22 22 20 17 19 22 10 3 3 7 6 8 7 9 5 10 5 6 6 3 3 1 4 6 2 10 7 12 8 7 7 4 5 4 3
11 10 9 11 11 12 13 14 16 18 15 20 20 18 12 7 10 3 3 2 5 7 9 9 9 7 8 6 4 7 6 8 8 11 3 3 3 2 3 5 12 5 5 7 2 1 1
9 10 10 10 11 11 13 13 15 16 14 16 12 9 9 12 1 3 3 4 5 4 8 6 7 7 8 10 8 8 8 8 9 8 5 2 1 3 2 4 4 6 5 3 1 3 5
10 10 9 11 11 11 11 12 13 14 12 11 6 3 11 7 4 3 2 3 5 5 4 4 5 4 4 7 6 5 8 5 11 12 8 6 2 6 5 2 2 2 3 4 4 5 3
11 11 13 9 10 10 11 11 11 11 8 6 3 3 3 3 2 2 2 3 7 5 4 3 2 2 3 5 4 5 5 5 9 11 6 2 1 2 6 3 3 3 2 6 3 3 2
10 12 11 10 11 12 12 12 11 8 4 3 2 2 3 1 0 1 5 4 4 4 5 5 4 2 1 3 4 3 2 1 6 6 4 5 2 1 4 3 3 4 2 1 2 3 5
12 12 11 11 12 13 13 13 12 7 4 2 2 3 3 2 1 4 3 3 4 6 4 4 4 4 4 2 4 4 3 2 6 7 11 1 1 2 4 3 5 4 3 2 1 2 3
11 12 12 13 14 14 14 14 13 7 8 5 0 3 3 2 1 3 4 3 5 3 3 6 4 6 3 4 5 3 3 4 4 5 7 2 1 2 4 5 9 5 3 2 1 2 4
13 14 14 14 14 15 14 12 8 7 14 5 3 2 1 3 3 4 3 2 5 5 3 2 3 8 5 4 4 5 6 2 3 6 3 4 3 2 3 4 10 8 8 4 8 7 10
15 14 15 15 15 14 13 11 7 8 19 4 4 2 1 3 3 1 3 3 4 5 3 3 5 7 6 5 7 13 7 6 4 2 3 2 2 2 1 2 7 5 5 2 4 3 2
17 15 15 16 16 14 13 12 9 9 22 14 7 5 2 4 3 3 4 3 5 6 5 9 7 3 4 8 7 5 6 8 6 12 8 5 4 1 3 4 2 4 4 8 10 5 6
17 17 15 17 18 15 14 13 11 12 15 22 13 5 3 3 4 7 9 8 6 5 5 8 10 5 5 3 4 4 1 2 5 10 7 12 2 2 1 1 5 2 2 1 3 0 4
19 17 16 17 18 16 16 14 13 13 13 23 20 16 3 1 5 10 3 4 3 3 5 4 4 4 2 1 2 2 2 3 1 2 7 6 4 3 1 1 3 2 1 5 2 2 0
19 18 17 18 18 17 17 15 15 14 15 19 11 29 4 2 4 3 3 3 3 2 3 4 6 6 2 1 2 2 2 2 2 2 1 2 1 6 2 1 6 3 7 3 2 2 4
20 19 17 20 19 18 18 16 15 14 15 20 13 24 13 3 5 3 5 6 1 1 1 4 4 2 3 2 1 2 1 1 2 1 3 3 3 3 3 3 6 8 4 1 2 6 7
20 19 18 20 20 20 19 18 17 14 15 18 7 22 28 2 2 4 12 17 14 12 3 3 2 1 1 3 1 2 2 3 2 1 2 1 2 2 4 2 5 6 6 6 7 6 6

GFSGBSN_925_spd_105.txt.gz
Wind_Speed
6 6 7 8 8 8 9 10 14 16 17 17 16 17 17 18 18 20 25 27 28 28 28 27 23 21 15 5 11 20 21 25 9 6 10 5 8 10 11 7 6 9 9 7 11 13 10
5 6 8 9 9 10 9 12 14 15 16 16 16 18 19 20 21 22 24 27 28 29 30 29 23 18 9 18 14 15 11 8 2 8 7 8 7 8 6 7 12 4 11 15 13 16 9
5 5 6 8 9 10 11 12 12 14 16 15 16 17 19 20 22 24 26 30 29 30 31 32 22 18 18 28 19 11 13 16 13 7 4 9 7 5 4 3 7 4 8 9 11 9 8
3 4 5 7 9 9 11 12 13 14 16 17 17 18 20 21 23 26 28 28 30 35 36 33 27 16 13 11 23 29 30 26 24 26 20 17 11 8 5 4 3 4 4 9 4 15 9
2 3 5 7 8 9 11 12 13 15 16 16 17 18 20 23 25 28 28 29 33 37 38 26 9 12 12 7 10 19 21 13 5 17 15 12 3 4 2 10 7 5 8 5 4 11 7
5 4 5 7 9 11 12 13 14 15 15 15 17 18 19 21 23 26 27 31 33 21 3 4 4 5 8 4 6 4 3 18 6 9 7 6 4 7 8 10 15 12 7 8 9 4 7
4 4 5 7 9 10 12 12 13 14 15 15 16 17 18 20 21 23 28 18 6 5 7 10 16 13 15 10 9 2 5 10 5 5 9 12 10 17 21 17 11 5 12 15 3 2 4
3 4 6 8 9 10 10 11 13 14 14 15 15 18 20 20 23 20 13 4 8 11 16 19 23 27 35 31 11 10 4 8 9 6 9 8 20 15 11 11 14 15 17 14 5 7 7
3 4 5 7 8 10 11 11 12 14 14 15 17 18 21 21 21 6 14 8 14 21 8 21 26 17 17 18 17 23 5 3 7 11 16 11 6 16 11 10 12 14 18 13 13 4 7
2 4 5 7 8 9 11 12 13 13 13 15 16 17 21 23 4 13 9 12 20 13 6 10 4 6 11 9 9 23 16 10 5 13 13 12 10 5 11 17 13 16 11 12 10 5 8
3 4 6 7 8 9 10 11 11 12 14 16 17 18 18 17 11 6 11 18 24 2 5 7 3 1 4 11 3 5 10 7 12 8 8 9 7 14 11 9 15 8 9 12 11 10 6
3 6 6 6 7 8 10 12 13 14 15 16 17 18 16 12 11 11 16 22 2 0 6 11 8 11 3 10 3 5 5 3 4 6 2 5 1 6 8 6 17 7 5 3 3 3 6
4 4 5 6 8 9 10 12 13 14 16 15 17 18 17 9 4 15 19 7 2 3 14 10 11 8 8 5 3 2 11 6 5 9 11 4 4 1 3 6 6 6 7 3 4 5 6
5 4 5 7 9 9 10 11 11 14 15 15 18 17 12 6 11 12 6 2 4 5 10 15 12 11 8 12 8 6 9 4 13 4 4 11 8 15 10 6 8 11 11 5 6 5 1
5 5 4 6 8 8 9 11 11 14 13 16 17 13 8 7 10 1 4 3 2 6 11 15 14 9 11 13 6 4 9 5 6 10 2 4 2 4 4 11 9 5 9 1 2 2 2
6 4 7 7 8 8 9 10 11 12 12 14 10 6 10 11 5 2 4 4 3 3 12 11 9 8 12 16 10 6 6 5 6 9 2 2 1 1 2 6 4 5 8 6 2 4 6
7 5 4 8 8 7 8 9 9 10 11 11 5 2 7 7 7 3 3 3 5 8 10 5 7 7 9 9 9 7 9 7 9 11 5 4 2 1 1 0 6 5 4 2 3 4 3
7 6 8 5 7 7 8 8 7 9 9 7 1 2 8 4 3 1 1 4 7 5 3 3 3 5 5 8 7 8 8 6 10 7 4 3 1 2 3 2 0 3 7 9 4 4 4
9 8 9 8 7 7 8 8 7 6 4 3 1 1 4 3 2 2 4 4 4 5 5 6 4 6 6 4 4 4 6 4 8 6 5 4 1 2 4 2 3 2 1 3 3 1 9
10 9 8 7 7 8 9 9 8 4 1 2 1 3 3 2 2 2 4 4 6 4 3 4 4 4 6 4 2 4 5 3 7 6 12 1 1 2 1 3 2 1 1 1 3 4 4
12 11 9 9 8 9 9 9 8 4 7 4 1 0 1 2 0 3 3 3 8 6 3 6 1 8 7 4 5 3 2 7 6 6 5 4 2 2 7 4 4 4 5 2 3 1 5
13 10 10 11 10 9 9 8 5 5 11 2 3 2 1 2 3 3 2 2 2 6 2 4 5 13 8 3 4 9 10 5 3 4 4 4 1 1 2 5 4 4 6 6 7 4 7
13 14 11 11 10 10 10 8 4 10 16 3 3 2 2 2 2 0 2 3 4 7 4 5 5 13 10 3 10 14 12 11 9 8 3 3 3 2 1 2 6 5 5 8 3 2 2
15 13 13 12 11 11 10 8 5 7 19 9 6 5 2 3 3 3 3 4 9 8 9 13 11 6 4 12 13 10 10 11 10 11 8 4 4 3 2 3 2 5 4 6 8 6 7
16 15 15 13 11 12 11 9 8 6 17 16 11 5 3 2 5 6 10 9 8 7 7 7 9 5 7 6 5 7 1 3 4 9 11 11 2 3 1 3 3 3 3 3 1 1 5
17 16 16 14 12 13 12 11 10 9 9 26 16 15 2 2 5 6 2 3 4 3 4 3 4 5 3 1 1 3 3 3 2 1 7 6 7 3 1 3 1 2 1 5 2 1 4
17 17 16 15 13 14 12 12 12 11 10 24 11 25 5 2 4 4 3 2 2 2 2 3 5 5 3 3 2 2 2 3 3 4 1 2 1 6 5 2 3 5 9 3 2 2 6
18 18 17 16 13 15 14 12 12 12 10 16 8 25 14 3 3 5 5 5 3 1 3 3 4 2 2 2 1 1 2 2 3 2 1 1 2 2 3 3 6 10 2 1 6 8 8
19 18 17 17 14 16 15 14 13 13 13 11 6 27 25 3 2 3 9 16 16 13 1 1 1 3 1 3 3 4 2 3 3 2 3 1 1 3 2 1 4 7 10 10 9 7 6

GFSGBSN_925_spd_108.txt.gz
Wind_Speed
5 6 5 5 5 5 5 7 10 11 12 12 12 12 14 14 15 16 18 20 21 23 24 24 20 18 19 8 14 13 17 17 9 8 11 13 17 18 24 15 21 24 22 16 19 20 18
6 3 2 2 3 4 5 7 8 10 11 12 13 13 14 15 16 18 20 22 25 26 26 25 21 17 18 25 15 16 12 7 5 13 14 14 11 18 13 22 19 13 19 24 18 17 17
5 5 2 3 4 6 7 7 9 9 11 12 13 15 16 17 19 21 23 25 27 28 29 29 22 19 20 30 15 14 12 12 7 6 10 15 18 11 9 16 18 18 20 18 17 13 15
6 5 4 4 4 6 8 8 8 9 11 12 13 16 17 18 20 22 25 27 29 31 29 28 23 19 18 13 15 28 30 29 26 24 15 10 7 13 15 10 10 15 19 20 19 23 21
7 6 4 3 4 6 7 8 9 10 11 13 14 15 16 19 21 24 28 29 30 27 22 19 11 11 14 6 15 25 30 27 21 26 21 12 9 14 14 18 14 18 17 20 15 10 15
8 7 6 4 5 6 7 7 9 10 11 12 13 15 16 18 21 25 28 29 16 11 5 4 1 3 12 8 14 17 9 22 10 15 16 16 10 13 16 16 23 17 17 16 10 8 15
8 6 6 5 5 6 6 7 9 11 11 12 13 14 16 18 20 24 21 19 6 2 15 13 20 16 24 32 32 23 11 16 13 21 18 23 16 24 30 24 19 17 12 15 14 7 13
8 6 5 5 5 5 5 7 8 10 11 12 13 14 15 18 20 14 12 5 2 7 14 24 29 30 43 40 29 29 21 13 17 19 21 18 29 23 14 19 18 12 13 20 14 8 11
7 6 4 4 4 4 5 7 8 10 10 11 13 14 16 20 14 6 5 5 7 15 9 19 9 15 16 22 29 31 21 19 18 18 25 20 12 22 17 15 18 19 21 18 18 11 14
6 5 4 3 2 3 5 6 7 9 10 11 13 14 16 18 2 9 4 9 12 12 6 8 12 8 8 8 15 22 29 23 13 19 20 16 7 18 22 21 19 21 20 18 13 9 14
6 4 3 2 2 2 5 6 8 9 11 12 13 14 15 10 8 7 10 13 17 4 6 12 9 18 21 10 11 7 30 19 18 11 10 11 16 13 20 20 21 15 13 12 15 16 15
5 3 2 1 1 3 4 6 8 9 12 13 11 15 14 8 7 9 12 17 4 4 5 13 13 23 9 15 14 4 11 18 14 12 10 6 2 15 17 10 18 8 8 9 8 10 12
6 4 2 1 1 4 5 7 7 9 12 11 14 15 9 5 6 14 13 7 4 4 15 16 25 18 22 9 6 6 16 17 12 17 15 12 11 7 10 15 15 13 15 6 7 6 10
4 3 1 2 3 3 4 6 7 9 11 12 15 11 4 3 11 9 6 3 3 6 11 21 20 16 9 17 6 11 14 12 4 9 11 14 14 14 12 11 12 21 17 6 8 9 10
6 2 2 2 3 3 4 6 7 9 11 13 13 4 6 10 6 7 5 1 4 8 15 14 18 10 14 22 11 0 8 5 5 7 5 13 12 4 13 9 12 15 14 10 6 1 3
5 3 3 4 4 3 3 4 6 8 10 12 8 2 7 8 9 8 2 3 4 7 14 13 11 9 9 18 15 12 5 10 8 7 5 2 7 9 7 8 18 10 13 9 9 6 8
6 3 3 3 4 3 2 3 5 8 9 10 3 2 4 11 7 2 3 4 5 10 11 9 12 11 13 15 12 9 10 6 14 11 6 6 4 8 9 8 14 10 11 9 8 9 4
6 6 5 3 4 2 2 4 4 6 8 6 3 0 8 8 1 1 4 5 5 8 8 3 8 12 12 17 10 10 11 9 11 5 7 8 3 7 8 4 6 14 16 15 8 9 10
7 7 7 6 5 3 3 4 4 4 4 4 2 2 3 4 1 3 5 3 2 8 10 8 8 11 15 10 6 10 13 9 13 11 9 7 1 6 6 6 5 8 10 14 13 8 10
11 9 7 7 5 5 4 5 4 3 2 2 1 1 2 1 1 3 6 5 7 5 5 8 6 10 15 9 9 9 13 10 15 12 13 5 2 3 2 4 2 6 9 10 12 8 9
11 11 8 9 6 5 6 6 4 3 6 2 2 1 2 0 1 5 5 3 5 7 4 6 2 12 12 6 10 9 13 16 7 8 7 5 4 5 6 4 4 5 5 9 12 11 6
11 12 11 9 7 7 7 6 4 6 10 2 2 1 3 2 3 4 2 1 4 7 5 6 7 14 13 9 9 16 16 12 6 4 8 5 2 4 5 5 6 9 11 11 10 7 7
14 13 11 8 8 7 7 6 3 11 14 2 2 2 3 1 2 3 2 2 3 7 5 5 8 15 13 10 15 20 18 16 15 13 6 4 4 3 1 1 3 8 13 13 10 4 4
14 13 12 11 9 9 9 7 4 12 18 6 4 3 1 3 4 3 5 7 10 10 11 13 13 11 8 17 22 18 15 15 15 13 10 5 6 4 2 4 5 5 5 9 7 3 3
16 15 14 12 11 10 10 7 7 6 23 13 7 4 2 4 5 6 8 8 9 9 12 12 8 7 13 14 9 8 3 5 8 9 9 9 5 3 3 4 3 6 4 2 4 5 6
17 16 13 13 13 12 12 9 8 9 8 22 15 12 2 2 3 6 4 4 6 4 4 3 7 9 7 3 4 4 3 3 1 5 7 5 9 6 2 4 2 6 5 13 7 4 4
19 17 15 14 14 12 12 10 9 10 9 18 10 22 5 2 9 9 5 5 3 4 5 5 7 4 5 3 5 2 3 4 3 4 1 3 3 8 7 4 0 8 9 13 5 4 8
21 18 16 16 15 14 12 13 9 11 11 9 9 24 11 3 8 8 8 10 7 5 6 7 6 1 2 3 3 4 2 3 3 4 3 5 4 1 3 3 3 15 1 5 5 8 8
22 19 15 16 15 14 12 15 11 11 12 10 6 18 25 2 4 5 12 21 19 13 7 3 4 6 2 3 3 4 3 4 5 2 3 1 4 4 4 4 6 8 9 9 7 8 8

GFSGBSN_925_spd_114.txt.gz
Wind_Speed
16 14 13 11 10 9 8 5 3 2 0 1 3 5 7 8 10 12 14 16 17 19 20 20 19 17 14 8 13 24 22 25 23 22 19 18 18 20 27 25 25 32 29 28 27 25 24
16 14 13 12 10 9 7 5 4 3 2 3 4 6 7 9 11 14 17 19 21 22 23 23 20 16 14 17 14 16 22 22 24 28 30 27 22 22 26 25 28 25 28 29 26 27 25
16 14 12 11 10 9 8 7 4 4 4 4 5 6 8 10 13 16 20 23 24 23 24 25 20 14 15 24 22 22 24 28 31 31 24 32 34 26 22 24 26 25 28 28 27 29 26
16 14 12 11 9 9 7 6 5 4 3 4 5 7 10 12 16 19 23 24 23 22 18 15 11 10 9 17 18 17 16 20 25 30 38 30 32 29 29 27 25 24 25 25 33 26 23
16 14 12 11 9 7 6 5 4 4 3 4 5 8 10 14 17 21 24 25 22 15 13 11 9 13 17 6 14 28 30 26 25 26 29 37 26 22 21 26 21 24 25 33 26 25 25
16 15 14 12 10 8 6 5 2 2 2 4 6 8 11 14 19 22 21 22 21 15 13 17 15 11 17 16 29 30 26 29 25 23 19 26 25 21 20 20 25 36 29 22 25 23 25
17 17 15 13 11 9 7 5 3 2 3 4 7 9 11 16 18 16 19 19 8 2 12 10 20 23 24 27 26 33 36 30 22 26 24 22 23 28 33 32 31 26 26 27 26 25 25
19 16 13 12 10 9 7 5 3 2 2 5 7 9 12 14 14 10 13 10 10 3 12 20 21 20 28 17 28 30 27 21 23 23 23 17 29 30 34 31 28 30 28 27 19 17 2
19 15 13 12 10 8 6 4 3 1 3 5 9 10 12 13 10 7 7 12 9 12 6 9 6 8 7 17 25 26 25 19 23 24 20 23 24 31 33 30 32 28 27 23 25 5 14
18 15 13 11 9 8 6 4 2 3 5 6 9 10 12 12 7 11 6 10 10 7 4 2 3 5 11 22 15 33 17 9 2 10 22 21 26 33 30 33 30 26 26 26 20 7 4
18 15 12 10 9 7 6 4 2 4 4 8 6 8 10 7 10 6 9 11 8 1 5 8 12 9 18 19 27 14 12 2 9 16 16 8 19 26 28 32 31 24 18 21 11 6 8
17 15 13 10 8 6 5 4 2 3 5 7 7 9 11 6 7 8 12 9 5 4 1 9 17 23 22 22 20 21 17 23 15 12 21 23 27 22 32 25 27 21 4 7 5 7 8
15 14 12 12 9 8 5 4 2 2 5 7 8 10 8 8 7 12 11 7 5 4 14 14 24 23 19 21 19 25 24 13 11 9 11 23 10 14 16 14 22 14 13 5 4 7 13
15 12 12 11 10 6 5 2 2 2 6 8 8 8 8 7 7 8 10 4 5 14 15 18 17 17 12 19 17 26 24 13 11 12 14 15 10 11 16 14 14 16 16 6 7 7 9
15 13 11 12 9 7 4 2 2 3 6 9 8 8 11 4 5 7 6 5 6 8 13 14 19 13 13 18 6 11 8 19 14 18 11 10 1 11 17 8 15 21 18 16 2 7 4
14 12 10 12 8 6 5 3 3 4 6 9 10 7 4 2 5 9 4 4 5 7 10 13 12 13 16 19 13 7 14 13 16 17 17 6 9 20 18 10 14 16 17 13 7 3 3
12 12 11 9 9 6 4 3 3 5 6 7 6 4 4 3 4 6 3 3 5 8 7 7 12 12 15 16 15 8 12 4 21 18 18 13 5 9 13 7 13 9 13 11 11 9 2
14 12 10 9 8 7 5 3 2 5 8 8 5 2 3 2 4 3 3 3 1 5 7 5 6 12 12 15 10 11 13 11 13 10 12 9 5 4 9 13 13 12 13 16 7 10 5
15 14 10 9 8 6 6 3 3 4 5 10 3 1 4 4 3 4 4 3 1 4 8 6 6 7 14 11 6 14 14 13 12 12 12 8 4 5 7 7 14 17 15 13 12 8 5
17 14 12 11 8 6 6 5 4 3 4 5 2 2 1 4 3 5 6 2 5 5 5 7 9 9 13 14 14 4 16 15 18 8 6 6 6 5 3 8 9 8 16 16 11 7 8
16 14 14 13 10 8 7 5 4 2 3 3 4 3 3 2 3 5 6 7 7 5 5 9 6 9 13 15 14 12 18 19 18 9 13 11 6 5 14 11 6 8 9 7 15 12 8
19 17 15 13 13 9 5 6 4 1 3 3 2 2 2 3 1 2 1 5 4 6 9 10 9 14 14 14 13 18 20 18 18 16 14 11 5 14 16 10 13 4 7 10 15 9 10
18 17 16 15 14 9 5 7 5 3 5 2 5 2 4 2 4 3 3 5 9 9 6 11 14 15 14 15 18 20 18 18 19 18 13 7 4 9 4 13 10 3 7 5 7 5 3
20 19 18 16 15 9 5 8 6 5 11 4 2 4 2 4 5 2 6 8 10 10 11 11 12 13 12 19 20 18 18 16 9 12 8 5 8 5 6 7 1 11 21 17 14 19 17
22 17 17 17 14 11 7 9 7 6 9 4 4 3 2 4 6 7 5 6 10 11 8 10 9 11 13 15 9 10 9 1 5 5 8 7 5 4 4 7 4 20 16 9 9 10 17
24 19 16 17 15 11 10 9 7 6 5 7 4 5 2 3 0 10 7 8 8 8 7 4 11 12 12 6 5 8 9 14 4 8 15 7 6 5 8 5 3 10 17 10 8 3 15
24 21 18 15 15 13 10 9 9 7 5 6 4 9 3 3 7 5 4 7 9 8 7 7 14 11 7 4 7 8 7 11 6 2 3 5 4 7 7 5 5 16 18 14 3 5 8
24 22 19 16 15 13 11 9 10 7 8 7 3 8 4 2 10 16 12 10 10 8 4 10 7 7 5 5 4 5 5 6 7 7 5 3 3 4 6 4 1 21 7 6 2 5 8
24 22 20 16 15 14 13 12 10 9 8 8 3 5 8 2 6 13 21 22 17 13 8 4 6 9 3 4 4 5 5 4 10 4 9 3 5 2 4 3 5 8 9 10 10 7 10

GFSGBSN_925_spd_117.txt.gz
Wind_Speed
22 19 16 14 12 11 10 8 7 5 4 4 4 6 8 9 11 12 13 15 16 18 19 18 15 14 8 1 8 12 16 20 22 22 16 12 15 13 17 8 16 27 19 22 20 23 29
25 21 17 15 13 12 12 9 7 6 6 6 6 7 9 10 12 13 16 18 20 21 21 19 14 9 4 5 4 14 18 21 22 26 21 17 12 14 20 21 20 14 22 24 21 28 27
27 23 19 17 14 12 10 8 7 7 7 7 7 8 10 12 13 16 18 21 21 20 19 16 11 5 5 13 11 10 14 16 17 16 12 24 21 17 8 21 16 22 22 20 28 32 27
27 23 20 17 12 11 11 10 7 7 7 7 7 9 11 13 15 18 22 21 20 14 14 10 6 2 7 14 12 15 16 27 25 19 20 19 27 20 12 18 29 26 16 22 41 24 20
29 24 20 17 13 11 9 8 9 8 7 6 8 9 11 14 16 20 20 21 18 16 16 11 6 5 9 4 3 19 17 18 23 24 26 26 13 12 16 18 18 22 25 33 28 12 17
27 26 20 18 15 13 10 9 9 7 6 6 7 9 11 14 16 16 18 22 11 7 6 6 10 5 7 9 16 16 24 26 19 17 14 12 5 9 14 15 21 26 25 15 17 14 19
30 25 22 19 16 11 11 10 7 6 6 6 7 9 11 14 14 11 20 9 7 4 4 5 9 6 16 15 22 17 27 19 4 10 17 13 13 15 22 23 23 23 19 21 17 15 19
28 25 21 18 16 16 13 9 7 6 6 5 7 8 11 11 10 11 9 6 6 2 8 10 16 13 25 20 14 19 25 12 10 18 11 15 22 24 22 23 25 25 24 23 17 15 18
27 25 22 19 18 15 12 9 6 6 6 7 8 9 9 9 8 6 7 14 9 8 2 9 8 6 7 8 9 13 15 6 9 6 9 16 20 19 20 21 27 27 24 22 17 2 5
24 25 23 19 18 15 13 9 6 5 6 7 8 8 8 10 5 8 10 10 8 6 2 5 4 3 5 6 3 17 11 2 1 3 5 6 12 17 24 29 25 23 23 25 23 18 4
25 21 20 18 16 14 10 9 7 5 6 7 5 7 7 5 7 4 10 13 4 2 4 3 5 5 14 4 13 4 18 5 9 8 5 11 17 22 18 29 24 22 24 24 25 9 6
23 19 18 15 14 12 10 7 6 4 5 6 6 6 8 4 2 7 11 6 5 1 2 3 8 13 10 4 9 11 9 5 9 7 13 20 13 13 12 18 20 26 22 13 3 6 2
19 18 16 15 13 11 8 6 5 5 4 6 6 6 7 3 3 11 8 3 3 2 9 9 10 13 10 7 7 12 17 13 12 7 11 18 20 13 13 14 20 22 14 6 1 2 4
19 16 14 14 12 9 8 6 4 3 4 7 7 6 5 6 5 8 7 3 1 7 8 11 12 13 7 13 5 10 13 15 15 17 10 9 19 12 10 3 8 12 8 5 2 5 4
18 14 14 13 11 9 6 5 3 2 4 8 7 4 3 5 3 3 2 2 1 3 8 8 13 7 7 11 5 6 4 4 10 13 11 8 10 22 11 6 10 9 11 3 0 2 3
18 15 14 14 11 8 7 4 4 3 3 7 5 4 4 7 2 2 2 3 4 6 5 9 8 5 7 10 9 5 7 0 10 8 15 7 8 13 18 12 2 11 6 4 3 1 4
16 14 11 13 10 7 5 4 5 3 4 5 2 1 5 4 3 2 2 2 3 5 5 5 7 5 9 11 8 9 6 3 7 6 8 9 5 5 9 4 5 3 5 4 1 4 1
15 13 12 10 8 7 6 5 3 4 5 4 3 2 9 8 2 2 1 1 2 5 8 4 4 4 7 12 5 6 6 8 11 10 9 6 3 6 6 17 8 13 6 5 3 4 2
14 14 11 10 9 7 6 5 3 2 5 3 2 3 7 5 1 2 2 4 3 2 4 2 4 4 9 7 6 8 8 11 14 14 11 6 4 5 10 9 11 3 11 11 12 2 1
17 15 13 11 10 7 6 5 2 2 3 2 2 2 0 1 3 2 4 2 4 6 4 5 5 5 6 7 10 10 11 12 15 17 14 4 3 3 1 6 6 10 16 15 6 2 3
18 15 13 13 10 8 7 5 2 2 2 1 3 3 3 1 2 4 4 5 9 4 5 7 5 9 7 5 10 6 18 21 14 7 7 6 4 8 13 13 9 13 10 12 9 8 2
17 17 16 15 12 10 7 6 2 2 1 2 2 1 4 4 5 4 1 3 7 8 7 6 6 9 8 8 9 13 15 15 9 3 9 7 3 9 6 11 9 6 8 9 8 12 11
19 17 18 14 13 10 6 5 3 1 2 2 4 5 2 4 3 2 4 1 4 3 4 7 5 5 8 6 10 14 16 19 18 15 12 4 4 5 4 16 6 6 15 9 11 18 4
19 18 18 15 14 11 5 6 6 3 5 4 4 4 3 4 3 1 4 3 3 5 4 7 5 3 5 8 13 13 15 17 16 16 9 5 4 2 4 8 3 6 17 15 17 19 19
21 19 17 15 15 12 6 7 8 4 4 1 7 4 1 2 4 5 8 4 5 7 6 4 7 6 7 7 4 6 5 6 4 9 4 1 1 2 2 4 3 13 18 14 13 10 16
23 19 19 16 16 12 8 8 8 5 2 6 2 4 2 2 2 10 7 6 4 5 6 4 9 11 5 2 3 3 2 3 4 8 6 3 2 2 3 3 4 6 20 18 10 6 12
23 20 18 18 15 13 10 9 8 4 4 5 0 2 2 1 2 5 5 2 4 4 3 3 9 7 6 3 1 1 3 8 4 6 5 4 3 4 3 2 5 13 17 14 4 4 8
24 22 19 16 15 14 10 9 9 6 5 5 3 3 4 1 5 5 5 4 4 2 1 5 5 5 4 5 3 3 2 3 4 4 8 4 3 2 3 4 3 17 8 7 6 7 8
24 22 20 17 14 15 12 10 9 8 7 5 3 4 2 1 4 14 23 26 17 12 1 4 2 3 2 3 3 3 3 3 5 4 3 3 2 2 4 2 3 6 6 7 10 9 11

GFSGBSN_925_spd_120.txt.gz
Wind_Speed
30 31 28 24 20 17 14 11 9 7 6 6 5 6 8 10 11 12 14 15 17 18 19 17 15 14 8 4 7 7 14 13 15 17 10 7 7 4 5 5 7 20 17 21 15 22 25
36 33 30 25 21 19 16 14 11 8 7 7 7 7 9 10 13 14 15 17 19 21 17 13 10 7 1 2 2 8 8 13 18 17 18 3 2 8 9 12 17 11 15 19 20 30 24
40 36 32 27 24 21 18 18 14 11 10 8 8 8 9 11 14 16 18 20 23 20 15 10 5 2 2 10 6 9 11 11 15 12 2 9 10 2 6 10 12 9 15 19 24 29 27
42 41 35 31 26 24 23 19 15 12 10 9 8 8 9 12 15 17 20 21 20 17 12 7 1 4 6 7 8 13 10 19 13 14 13 18 17 9 6 7 11 15 12 18 27 13 23
46 43 37 31 29 26 22 18 17 14 11 9 7 8 9 12 15 18 18 20 20 11 7 5 3 4 8 12 6 10 14 13 21 23 23 18 11 8 4 6 12 11 16 21 26 8 11
49 43 37 33 28 24 20 18 15 12 10 8 6 7 9 11 13 14 17 12 4 4 7 6 2 2 6 4 7 8 22 22 12 9 2 3 4 4 3 3 14 22 14 18 17 16 12
49 42 37 32 26 25 18 16 14 11 10 7 6 6 8 10 10 11 18 3 6 4 5 4 3 4 6 7 15 8 21 9 3 4 5 3 3 11 16 17 18 19 21 21 24 23 19
47 38 33 28 25 22 21 17 13 9 7 6 7 6 6 7 7 9 7 4 4 1 6 6 11 10 23 9 5 7 8 3 4 9 6 1 13 20 17 20 19 20 22 23 22 23 21
44 37 32 27 23 20 20 17 13 10 9 8 7 6 3 3 3 5 10 9 4 1 1 6 6 5 7 10 5 5 3 2 5 6 6 8 14 7 11 15 19 25 29 20 21 20 20
46 35 30 27 24 19 17 14 12 10 8 7 6 3 2 0 3 2 4 7 1 2 3 2 3 5 4 4 3 14 4 6 3 6 3 8 7 9 13 20 19 25 19 20 22 18 10
41 36 33 27 24 19 15 14 12 9 7 6 4 3 0 2 4 4 1 5 2 0 3 1 1 4 7 1 7 3 22 2 12 9 5 12 7 9 15 19 11 17 18 19 22 19 12
36 33 30 26 24 22 18 13 11 9 8 5 4 1 3 7 5 4 5 1 2 4 1 2 3 5 7 3 7 5 6 7 3 4 8 19 10 5 16 24 13 9 16 17 17 6 12
31 28 27 23 21 17 15 11 10 9 8 5 2 3 5 6 5 2 1 3 3 3 4 5 4 7 8 5 8 4 5 8 4 7 7 13 3 2 9 15 6 7 7 1 4 6 7
29 25 22 20 20 19 15 12 8 9 5 3 6 4 5 7 6 1 2 3 4 2 1 2 3 10 3 8 5 5 5 3 4 3 12 7 9 6 9 2 6 7 11 5 4 3 4
24 23 21 21 18 15 13 11 10 7 5 3 2 2 3 6 5 2 4 4 5 2 1 3 8 2 4 6 2 5 1 4 4 4 8 7 8 20 8 11 3 1 6 17 2 7 2
23 19 18 17 17 14 12 9 7 6 3 2 4 3 3 8 7 3 4 3 3 3 1 2 2 3 5 5 6 4 3 4 6 5 7 4 9 7 15 9 3 7 4 3 3 2 3
18 17 17 16 15 12 11 9 7 5 2 2 5 2 7 8 6 4 3 3 3 3 4 2 2 4 5 6 4 4 4 6 10 10 7 7 4 8 6 4 4 7 3 5 2 1 3
19 16 17 17 13 12 11 8 5 3 2 4 4 2 11 12 2 1 2 4 4 3 3 2 3 3 2 4 5 3 5 3 9 7 8 4 4 6 11 9 11 5 11 7 2 3 2
18 16 15 13 12 12 11 8 7 2 3 5 3 2 6 5 2 1 4 2 6 3 1 1 2 2 2 3 5 4 5 8 13 12 4 6 3 6 8 3 10 5 9 14 4 2 5
18 17 15 14 14 11 9 7 6 4 3 3 3 2 2 2 1 3 0 2 3 2 0 3 1 2 3 4 1 7 4 6 9 12 10 5 3 2 5 10 6 7 16 16 8 3 3
19 16 16 15 14 10 9 6 5 3 3 2 2 3 3 2 2 4 2 1 2 3 4 6 4 3 2 4 6 2 7 9 10 5 6 2 4 5 15 9 5 5 12 12 9 10 3
18 18 15 15 13 10 8 7 4 3 4 2 3 3 3 0 3 3 1 1 2 3 2 4 1 5 4 4 4 13 11 11 6 7 6 5 4 6 6 4 6 11 11 15 11 13 13
19 17 15 16 12 11 9 7 4 2 4 2 2 2 3 2 2 3 3 3 2 2 1 1 4 4 6 7 8 13 12 15 12 10 13 4 3 5 4 13 7 8 15 17 12 22 7
20 18 18 17 16 12 8 7 5 2 5 5 5 2 3 1 2 0 2 3 4 3 1 3 5 2 5 8 10 8 9 13 11 12 11 4 4 2 4 8 3 5 16 8 19 18 18
21 20 19 17 16 12 7 7 6 3 6 9 5 3 2 2 1 5 9 4 7 7 5 2 3 4 7 6 4 5 5 5 4 2 3 6 2 3 2 3 3 8 14 9 6 10 13
22 21 20 18 16 13 8 7 7 4 5 6 8 5 3 4 1 4 3 4 3 3 6 3 5 7 6 3 3 3 3 4 4 7 6 7 1 2 3 2 5 4 19 15 6 7 11
22 21 20 18 16 13 9 8 8 6 6 7 5 5 4 3 1 3 3 1 1 2 2 3 6 7 5 3 2 2 3 4 4 5 5 5 4 3 3 2 2 12 18 13 3 4 7
23 22 20 18 17 13 10 9 8 7 8 7 7 6 4 2 3 2 2 1 2 2 2 4 4 4 4 5 3 2 2 3 2 2 4 4 3 4 4 4 4 19 7 6 3 9 10
24 23 20 20 18 14 12 10 9 8 9 7 5 5 5 4 3 5 17 21 13 9 4 2 3 2 1 3 2 2 2 3 3 2 2 3 2 2 4 2 4 5 5 7 7 6 9

GFSGBSN_925_spd_123.txt.gz
Wind_Speed
42 41 35 34 32 29 23 21 19 16 12 10 9 8 8 9 9 10 11 12 13 14 15 14 14 15 8 5 5 5 8 11 10 14 12 4 4 3 2 5 10 7 7 11 13 14 16
45 44 39 39 37 32 26 23 21 18 14 13 11 9 9 10 10 11 12 12 14 14 13 10 8 7 3 3 1 4 7 10 12 11 9 2 2 3 5 4 4 7 17 17 17 18 15
49 49 43 43 39 33 28 25 22 19 16 13 10 9 9 9 11 11 13 15 14 11 9 4 3 0 2 7 5 7 4 8 12 8 3 6 4 2 3 6 8 6 21 22 23 12 8
54 52 47 47 43 36 31 27 23 19 15 13 11 10 10 9 10 12 14 13 13 13 10 3 2 3 5 4 10 9 7 14 12 8 11 17 13 5 5 4 5 6 7 11 10 10 9
56 55 50 49 43 36 30 29 24 18 14 13 11 10 9 9 8 11 11 15 13 4 6 9 6 2 7 6 6 7 8 8 13 19 18 15 4 5 4 2 5 4 8 9 28 6 11
61 60 54 50 43 37 32 28 22 18 16 13 11 9 8 8 9 7 11 7 7 13 12 8 3 2 6 3 3 9 14 16 8 6 6 1 2 2 1 4 8 8 8 11 13 11 13
57 62 55 49 44 35 33 26 20 17 15 14 12 8 6 6 5 6 9 5 3 1 4 5 4 3 4 7 9 8 11 5 3 2 3 3 2 10 11 12 15 16 18 22 27 23 23
61 58 55 50 40 38 29 25 20 17 14 12 9 7 6 4 2 3 2 3 2 1 2 4 5 6 8 3 4 9 5 3 2 6 2 1 9 15 8 8 13 18 22 23 22 25 19
61 59 56 49 43 36 30 25 20 18 15 12 9 7 4 4 1 6 7 5 3 1 2 4 4 4 3 10 5 7 5 2 5 5 4 6 9 3 8 12 14 20 19 23 24 28 21
61 56 53 49 41 34 32 25 21 16 13 10 8 5 4 3 5 8 2 0 4 2 3 2 3 5 5 5 2 6 3 4 2 2 2 6 5 10 8 12 12 23 16 21 24 15 11
64 58 54 45 40 37 32 28 21 16 13 10 8 6 4 5 6 6 3 2 5 1 0 4 3 2 5 3 3 3 7 3 4 4 4 9 8 6 6 9 11 21 14 15 13 14 12
60 57 51 44 38 35 33 29 23 16 12 11 8 6 4 7 5 5 2 4 1 4 4 3 2 4 5 3 3 3 4 2 4 4 6 13 6 4 7 10 17 17 9 7 10 10 8
54 51 46 42 35 32 29 24 20 16 12 11 10 6 6 9 5 5 4 4 3 2 2 1 1 3 3 4 5 3 3 7 2 6 14 9 4 2 5 7 6 6 3 3 3 2 6
39 39 34 34 31 28 24 21 17 16 14 11 9 6 8 9 7 5 6 4 3 3 1 1 2 4 2 5 3 5 3 5 4 2 9 6 10 2 5 6 6 4 6 3 4 3 6
31 33 31 28 24 21 21 19 17 16 12 8 7 6 2 14 10 5 4 2 4 3 3 2 4 2 3 4 3 5 1 1 3 6 5 6 8 10 17 13 6 1 6 11 5 8 4
28 27 27 25 23 22 19 18 16 14 11 7 10 6 5 12 11 4 3 3 2 3 3 3 1 1 1 4 4 3 2 3 3 2 3 5 11 7 9 5 6 4 6 0 3 5 4
24 23 24 23 22 19 18 15 13 12 11 8 5 3 5 12 8 4 3 4 3 2 3 3 2 1 2 2 2 2 4 4 1 4 8 5 5 10 10 5 6 6 4 4 3 4 4
18 20 20 21 18 17 15 12 12 11 10 8 4 3 11 11 2 1 3 4 3 3 2 1 3 1 0 2 2 3 3 2 6 5 6 5 3 6 13 4 6 2 2 4 3 4 1
20 21 19 18 16 17 15 13 11 11 11 6 3 3 5 2 3 2 3 1 4 3 2 2 1 3 2 3 3 2 3 5 6 6 4 4 3 5 9 4 2 3 6 9 8 3 1
20 19 19 17 15 16 13 12 10 8 8 4 3 3 1 2 1 3 3 2 3 1 3 2 3 5 4 2 3 5 7 5 9 6 9 1 3 5 4 12 13 9 11 12 3 2 2
21 20 19 17 17 15 13 11 8 6 7 3 2 2 3 3 2 3 3 2 3 2 2 2 2 4 2 3 4 1 2 7 6 4 3 2 4 4 11 11 10 12 8 11 12 12 2
20 19 19 18 15 13 11 9 7 5 5 2 3 3 3 2 3 4 1 3 4 3 3 2 3 2 3 3 5 12 5 4 7 3 6 3 3 4 4 7 8 17 20 16 11 12 9
22 21 17 17 15 13 11 9 6 6 4 2 2 2 3 2 3 4 4 5 4 4 1 4 2 1 4 7 5 8 10 13 13 11 9 3 2 3 4 7 5 4 14 13 8 18 8
21 19 19 17 13 13 12 10 5 5 4 5 3 2 3 1 3 2 1 3 5 2 4 2 5 2 4 6 7 6 7 11 9 12 10 3 2 2 4 5 4 3 10 7 10 14 14
22 21 18 19 17 13 10 9 7 6 7 8 3 3 3 3 1 4 6 5 3 4 3 2 1 2 6 3 4 5 4 3 2 3 2 9 1 2 1 3 3 3 8 8 6 8 14
25 21 21 20 16 12 9 9 8 8 8 10 11 8 4 5 1 2 4 1 2 2 4 2 3 4 5 3 3 2 2 3 4 8 6 3 2 2 3 3 2 2 19 15 7 5 12
23 22 21 19 16 12 9 10 10 8 8 4 6 6 6 3 1 2 3 3 3 3 1 3 5 6 3 3 2 2 2 2 2 4 4 4 3 3 3 1 2 12 17 11 2 4 10
22 22 21 18 17 13 10 11 11 10 10 5 8 9 4 2 1 1 1 3 2 2 2 3 3 4 3 3 2 1 1 2 2 2 1 4 3 3 3 3 2 15 7 5 4 5 8
23 22 21 20 18 14 12 12 12 11 10 9 5 9 7 5 2 2 6 8 5 4 4 2 3 1 2 3 1 0 2 2 1 2 3 2 2 1 3 1 4 5 5 5 8 5 5

GFSGBSN_925_spd_129.txt.gz
Wind_Speed
43 41 39 38 35 36 33 29 27 27 24 21 17 13 11 9 9 10 8 7 7 9 8 9 9 11 2 2 3 3 2 5 8 9 12 4 8 2 1 3 4 6 3 7 9 16 15
28 46 43 42 40 38 39 34 31 29 26 23 19 15 12 11 10 10 9 8 8 7 6 7 9 9 1 3 5 3 2 4 7 7 7 8 3 1 0 2 2 3 10 15 12 14 12
23 28 46 48 46 43 42 39 34 33 29 25 20 15 14 11 11 10 9 9 8 6 3 4 6 8 2 4 4 1 2 3 6 3 2 3 2 3 1 4 4 6 11 9 8 1 3
34 30 33 48 52 47 46 44 39 37 32 27 22 17 15 12 10 8 9 6 9 11 8 3 2 4 2 3 1 3 2 2 4 4 1 2 2 2 1 4 5 5 3 5 1 13 4
39 38 37 38 52 52 49 49 44 41 36 29 23 19 15 13 9 7 5 7 6 3 6 5 2 2 3 2 1 2 1 2 6 2 3 3 3 2 1 1 3 4 8 9 9 6 6
37 41 41 43 43 55 55 53 47 45 39 31 25 20 15 13 9 5 3 7 8 10 10 4 3 2 0 2 1 3 1 1 2 2 2 4 4 1 1 1 4 6 9 8 14 2 8
41 41 46 48 47 51 56 51 52 48 42 33 27 22 16 14 9 7 14 8 2 2 1 2 1 2 2 5 1 2 0 2 2 4 2 2 1 6 7 7 7 7 13 17 23 18 17
49 50 50 51 55 52 56 53 55 49 43 35 29 24 21 15 11 9 14 3 3 2 1 2 2 4 3 3 2 1 3 2 1 2 0 1 5 5 4 6 6 7 13 18 24 13 14
52 57 55 54 60 56 56 57 56 50 45 36 30 25 22 17 12 10 8 7 6 3 2 1 3 3 1 4 1 2 3 2 1 1 3 4 2 3 2 8 7 9 11 17 16 26 21
52 56 60 51 57 58 60 58 57 53 47 37 31 27 22 21 11 13 6 10 8 3 3 3 3 3 4 2 0 2 3 2 1 1 1 6 1 2 2 8 5 10 12 16 13 14 10
57 64 58 47 50 60 62 61 58 52 46 41 35 25 20 23 13 10 9 10 9 1 3 6 2 6 4 2 2 1 0 2 3 2 1 3 1 2 4 8 6 8 6 14 18 16 13
57 50 33 44 47 56 66 63 59 54 47 39 32 28 24 18 13 12 14 15 4 3 6 5 4 4 4 2 1 2 2 3 2 0 3 9 4 4 5 6 10 11 10 18 6 2 5
55 21 27 38 45 63 65 61 57 52 45 37 32 27 23 17 10 23 18 6 3 4 2 6 4 3 4 2 2 3 3 5 4 5 6 6 3 3 4 4 3 1 11 5 2 3 6
67 20 27 37 63 64 64 61 55 50 42 36 33 24 19 11 25 23 13 3 4 4 4 4 5 7 4 1 2 3 3 2 4 1 2 5 2 1 1 4 7 8 4 3 5 5 13
49 65 21 65 64 61 60 54 50 46 42 38 35 23 18 16 21 20 3 2 4 5 7 10 5 4 3 2 3 0 2 2 2 2 4 2 5 1 8 7 2 1 4 3 4 9 5
25 31 43 33 48 56 55 52 49 44 38 35 22 16 10 20 15 9 3 3 3 4 7 5 4 3 4 4 2 3 1 1 2 2 1 0 5 2 5 4 5 2 5 2 3 5 7
25 25 24 25 31 37 41 45 44 39 38 27 17 5 5 20 13 2 3 3 4 4 5 4 5 5 4 4 3 2 3 1 0 1 1 0 2 6 5 1 7 5 4 4 3 4 4
19 22 23 25 26 29 28 30 37 36 40 25 5 4 12 18 3 1 3 4 4 5 2 4 5 5 4 4 3 3 4 3 2 1 4 1 2 5 7 11 2 5 8 4 4 3 5
20 23 23 23 22 24 26 27 29 36 30 11 3 4 5 3 4 3 2 3 3 5 4 4 4 3 3 4 4 3 3 3 4 1 3 2 2 5 3 5 4 6 14 10 8 4 4
18 19 19 21 20 20 21 22 25 27 16 4 4 4 1 1 1 4 4 4 5 3 4 6 5 5 4 3 1 4 2 1 1 2 5 3 3 5 4 5 3 4 16 14 9 3 4
15 19 19 18 17 17 17 18 17 17 14 2 2 3 4 4 3 3 3 5 10 5 3 4 3 4 5 4 2 3 2 2 1 1 2 1 3 4 9 13 2 4 12 15 11 11 6
16 17 19 19 17 15 15 15 14 12 11 2 3 4 2 3 7 5 3 4 7 4 4 3 7 6 4 4 3 4 4 3 4 1 2 1 2 2 4 5 9 3 13 12 10 11 6
17 16 17 19 17 14 13 12 11 11 6 2 3 1 4 1 4 4 3 5 8 7 6 5 9 5 5 4 4 4 5 4 3 2 1 2 0 3 2 5 3 4 8 7 8 14 8
18 18 18 16 15 13 11 10 9 9 3 3 2 2 4 2 3 4 6 8 8 4 6 3 5 4 3 1 2 4 1 6 5 9 7 2 2 1 4 6 2 4 6 3 7 10 10
18 18 18 16 14 13 11 9 9 6 4 4 3 2 3 3 4 6 11 8 7 5 4 4 2 2 2 2 3 4 2 2 3 2 5 7 1 1 2 3 4 4 6 6 4 7 13
20 20 19 17 14 13 11 10 9 10 10 11 11 7 4 6 1 4 6 5 4 3 2 2 2 1 3 2 2 3 3 3 4 3 5 5 2 0 2 2 1 2 13 8 5 2 10
21 21 19 16 14 13 12 11 10 9 8 6 9 7 6 4 1 2 3 4 3 4 3 1 1 2 2 2 2 2 2 1 3 2 0 1 2 2 1 2 4 7 13 8 3 4 8
25 20 21 17 15 13 13 10 10 10 7 6 10 11 3 3 2 3 2 4 3 2 3 3 2 2 2 3 2 2 1 2 2 3 2 1 0 0 1 1 2 10 3 3 3 4 8
26 22 22 20 16 14 14 12 11 10 9 9 6 13 14 5 3 5 8 7 4 4 5 1 2 2 2 3 1 2 2 1 3 4 1 2 1 1 0 1 6 6 7 4 4 3 6

GFSGBSN_925_spd_132.txt.gz
Wind_Speed
21 22 35 38 35 33 33 34 31 27 25 23 20 17 13 11 10 10 9 6 7 7 8 8 8 11 3 5 3 4 2 3 4 5 7 2 3 2 5 3 5 10 8 7 12 15 18
19 21 20 24 39 37 36 36 35 32 29 26 23 19 15 13 11 10 10 7 6 6 7 6 8 9 5 6 4 5 2 2 5 4 6 6 3 2 2 3 5 2 10 15 14 16 18
21 24 24 26 22 45 42 39 36 37 34 30 26 22 18 14 14 11 10 9 6 6 7 6 7 6 6 3 5 1 1 2 4 4 3 4 2 4 4 6 2 8 13 12 6 3 12
23 27 28 28 27 23 44 44 41 40 39 34 30 25 20 16 15 12 9 8 7 8 10 7 5 3 0 4 1 0 1 2 3 2 1 0 2 3 4 4 6 8 7 5 8 9 5
24 25 25 24 28 30 30 46 43 44 42 38 33 28 23 19 17 12 8 6 6 7 5 5 1 3 5 3 4 1 1 2 2 2 1 3 3 2 4 6 9 5 8 11 9 4 10
26 27 30 30 30 30 33 36 48 47 45 42 37 30 25 21 18 12 9 7 7 6 5 1 2 4 5 6 3 1 1 1 1 2 4 3 2 5 4 6 8 10 12 11 13 6 15
28 32 37 37 41 38 37 37 42 51 48 46 41 33 26 21 18 14 16 7 5 4 6 3 2 1 7 4 1 4 2 3 3 4 4 0 6 6 7 5 8 9 13 18 14 16 14
31 30 34 44 46 43 41 42 42 52 53 50 44 37 29 22 16 17 16 5 2 3 4 5 2 3 1 1 7 5 4 5 3 3 2 5 5 5 3 4 7 11 14 18 13 2 18
29 32 39 46 48 47 45 44 45 49 56 51 49 39 33 24 16 16 17 10 8 4 2 4 4 4 3 6 4 6 4 1 2 2 3 6 4 4 4 7 9 13 13 16 21 18 20
32 37 47 46 49 53 51 48 47 51 52 51 50 42 33 28 12 15 15 14 11 6 4 9 9 6 6 4 5 3 1 2 3 3 4 5 1 3 7 10 7 12 5 10 18 17 7
32 39 49 60 66 68 60 53 51 57 55 55 50 42 39 38 11 20 13 18 14 3 5 11 8 8 6 6 10 4 2 2 4 1 3 3 3 4 5 2 3 6 9 15 18 18 16
30 40 56 62 66 53 58 58 56 62 64 55 52 46 40 31 10 13 27 21 8 5 8 9 8 11 10 6 4 6 3 2 1 3 6 9 5 5 3 6 8 12 15 17 3 3 5
30 39 54 59 42 37 44 55 62 66 64 60 53 48 40 25 11 24 26 12 5 7 11 11 11 14 11 9 7 7 4 3 1 3 1 2 5 3 4 9 4 4 10 4 4 5 6
26 35 49 47 26 21 40 53 68 71 63 58 52 43 30 22 29 31 13 5 7 13 12 8 17 17 9 12 6 6 7 5 3 2 2 2 5 4 2 5 6 7 4 4 6 8 15
24 31 38 24 23 29 44 62 67 63 62 57 48 28 23 21 29 25 10 11 8 11 12 17 17 14 7 9 5 6 5 5 3 5 3 2 2 3 7 5 5 2 3 3 6 15 7
19 24 29 53 16 33 63 65 65 64 61 56 29 25 17 26 27 20 8 11 6 5 15 22 9 10 11 14 10 5 11 6 6 2 2 1 4 3 3 3 3 6 7 3 3 5 8
17 20 25 30 42 35 61 64 65 65 54 45 30 6 12 20 17 5 5 8 5 13 13 11 8 10 9 13 9 8 9 7 6 5 2 2 3 3 3 1 5 3 3 4 5 6 5
10 15 22 27 26 28 27 49 63 56 55 31 5 6 20 19 8 8 10 7 9 16 8 5 9 9 13 13 8 7 9 3 6 3 4 3 2 3 4 3 1 6 7 7 4 2 9
11 14 17 19 25 30 30 27 47 55 23 15 4 5 9 4 9 12 7 9 8 13 9 7 6 5 9 10 6 8 8 7 7 1 5 4 2 3 6 6 9 3 10 8 7 6 3
13 14 16 18 22 25 25 35 37 22 15 14 6 5 3 2 1 12 12 14 8 6 5 8 11 11 11 10 3 10 9 5 5 3 4 2 1 3 6 4 3 6 10 9 5 4 4
12 15 15 16 16 22 27 32 31 11 4 6 3 5 8 8 6 10 10 14 16 7 5 8 6 6 10 7 8 7 7 6 5 6 4 0 2 4 10 10 4 2 7 12 12 13 7
13 16 15 15 15 19 20 24 15 10 6 1 4 6 4 13 14 13 8 15 18 9 10 10 11 13 8 9 3 11 9 6 5 6 3 3 1 6 7 6 11 7 8 12 9 11 11
16 16 18 18 16 17 17 15 13 11 6 2 4 3 5 10 15 13 10 18 16 14 4 9 16 11 8 8 5 7 2 4 5 4 5 3 2 5 3 2 10 4 5 6 10 11 6
18 17 17 16 15 14 12 10 12 11 6 1 1 2 4 9 13 10 14 14 17 10 11 11 11 7 5 7 7 4 3 4 4 4 4 2 4 3 3 4 3 5 2 5 10 9 9
18 17 17 15 14 14 11 8 9 10 5 1 2 1 3 9 11 11 18 17 15 14 13 13 5 4 5 7 5 8 5 6 5 4 5 7 3 3 3 1 6 8 3 3 3 5 9
19 18 17 16 14 13 11 9 7 6 5 5 5 2 2 10 6 18 16 16 13 9 8 4 5 3 3 3 3 6 5 6 6 6 4 7 5 5 3 3 3 6 8 2 4 4 8
20 19 19 15 15 14 11 10 8 9 4 1 4 4 4 5 4 10 8 10 6 6 6 6 5 4 2 3 4 4 4 1 7 8 5 4 4 5 2 3 3 4 7 2 5 4 6
22 21 19 16 16 14 11 10 11 10 6 1 5 5 3 3 5 4 3 6 5 5 7 6 5 2 3 4 3 3 3 3 4 4 4 4 2 2 2 4 3 8 2 3 3 2 5
24 21 18 16 14 14 11 11 10 9 8 4 5 13 15 6 5 9 13 10 8 6 7 3 2 4 2 2 1 2 3 3 5 5 3 3 3 1 4 3 4 7 8 5 2 2 4

GFSGBSN_925_spd_135.txt.gz
Wind_Speed
17 20 18 21 33 32 31 29 30 30 25 23 22 21 17 15 13 12 10 10 8 9 7 7 8 9 4 6 2 3 3 3 4 4 5 6 7 7 11 7 9 16 17 12 12 13 16
15 17 18 23 17 22 35 31 29 31 31 26 27 25 20 18 15 12 10 12 9 10 7 7 7 6 6 9 4 5 2 1 2 3 4 6 4 6 9 9 8 10 13 16 17 18 17
14 18 19 20 21 22 19 34 33 34 36 30 30 29 23 20 18 15 11 11 10 9 8 7 7 6 8 3 6 5 2 1 1 2 4 2 5 7 8 9 5 10 16 18 20 6 9
18 19 19 21 19 21 22 23 30 40 37 35 33 31 27 22 20 16 12 11 9 10 11 9 6 6 5 5 6 6 6 5 1 2 3 4 5 8 7 8 11 12 13 14 8 4 9
20 21 24 22 20 18 19 21 25 30 40 38 38 35 29 24 20 15 12 9 8 10 9 6 3 6 6 9 9 7 5 5 2 3 3 3 5 8 6 10 11 13 9 7 14 6 6
19 21 23 24 24 27 25 22 22 25 36 41 41 38 32 26 20 14 10 4 1 2 2 5 7 6 7 13 10 7 6 4 5 4 6 6 5 8 11 9 10 13 13 12 16 13 16
21 22 25 26 28 28 27 30 27 25 28 43 43 41 35 28 23 17 10 4 3 4 13 7 2 3 11 10 9 11 8 7 7 8 11 7 8 12 10 7 8 10 13 15 14 14 12
23 23 25 28 27 26 27 30 31 30 29 34 44 44 39 30 22 17 15 7 5 5 6 13 6 5 5 14 8 10 8 8 6 10 3 8 13 8 4 5 7 11 15 14 13 3 16
24 27 29 29 29 29 30 34 34 33 32 34 46 45 42 30 24 19 20 15 7 8 6 8 13 12 14 14 12 13 12 4 9 9 10 10 7 1 6 8 10 12 13 13 14 15 17
28 32 33 32 34 38 41 42 41 39 39 36 48 44 43 35 21 16 9 20 2 8 1 9 10 9 11 9 8 7 6 5 7 8 3 7 6 2 7 10 7 11 6 11 13 14 12
28 30 31 34 38 44 47 53 46 44 42 38 51 49 49 46 18 18 9 11 8 3 1 15 17 17 18 14 14 12 7 6 10 6 5 4 5 5 6 5 3 7 10 15 17 15 17
27 28 31 35 40 47 54 58 59 50 46 44 60 55 49 25 13 18 21 21 9 3 7 13 13 17 19 16 12 11 9 6 3 5 9 11 1 5 5 5 8 10 13 18 17 6 8
26 28 32 36 40 51 60 61 61 54 52 54 64 59 51 32 13 31 32 16 7 5 16 16 16 23 21 14 13 11 12 12 8 7 10 8 9 5 5 7 6 6 11 8 5 7 10
24 27 31 36 43 55 62 62 43 44 58 63 65 58 36 21 32 40 30 6 7 10 19 10 22 22 16 17 13 12 10 9 4 6 3 8 7 11 7 3 6 7 6 6 7 10 14
23 24 28 33 45 58 51 31 32 46 58 65 60 35 30 26 42 35 14 6 9 10 13 17 21 23 13 17 8 12 12 12 5 2 4 5 5 5 4 4 4 3 4 6 6 13 12
19 21 25 30 40 46 26 23 29 56 73 73 33 30 16 39 36 26 8 7 8 11 13 20 15 19 17 20 12 9 15 8 8 3 3 3 4 6 4 7 11 8 7 4 3 5 9
15 16 19 26 32 19 25 31 58 73 72 56 31 6 16 34 27 8 9 11 18 12 17 24 12 12 15 19 14 11 15 7 9 8 5 3 4 8 5 7 2 4 2 3 7 9 8
10 11 12 19 23 33 33 73 73 68 60 38 6 5 29 37 7 6 11 12 6 18 14 7 8 8 15 18 15 13 12 8 10 7 5 4 3 5 2 6 1 3 4 4 3 8 8
5 5 5 12 18 27 32 33 45 49 26 18 4 5 24 21 8 13 12 11 11 19 15 11 8 7 15 15 9 10 12 9 10 8 6 6 4 4 7 8 11 1 3 9 9 11 14
1 3 4 13 14 26 30 20 17 15 8 7 5 5 4 3 4 17 17 16 15 13 6 6 7 11 16 15 6 13 14 9 10 5 5 2 4 4 3 1 2 4 4 8 9 7 4
6 6 7 8 16 22 30 21 13 12 12 7 2 6 9 9 9 20 16 16 19 14 8 10 8 14 15 10 10 11 14 12 8 7 7 5 5 5 5 4 5 0 2 5 4 10 5
11 10 10 9 15 18 25 19 7 6 9 4 3 8 10 17 16 17 16 19 20 11 13 13 11 14 12 11 5 16 13 13 8 12 10 5 4 4 4 3 12 4 2 2 2 3 5
12 13 12 11 13 17 24 13 3 3 8 5 7 13 9 14 16 12 14 21 20 14 2 9 14 13 10 9 3 12 8 7 8 11 9 6 3 3 3 7 10 5 3 3 5 6 6
16 13 14 12 12 16 13 8 7 2 4 6 15 10 9 12 15 16 17 17 16 12 11 11 14 10 9 12 11 9 6 6 6 4 3 5 4 1 1 11 5 4 5 4 8 4 5
20 17 14 14 13 13 10 10 5 5 5 4 5 3 7 12 15 19 22 17 16 11 17 17 9 10 13 12 9 9 6 6 7 9 8 4 3 3 3 3 6 6 6 6 7 5 2
20 19 15 14 13 12 10 12 11 8 5 1 2 7 6 11 13 16 16 19 14 14 13 9 8 8 8 6 6 8 6 10 7 7 6 7 3 4 5 8 4 7 3 3 4 5 1
22 19 17 14 12 9 7 6 7 5 4 2 2 6 6 7 7 16 12 16 13 11 8 11 8 6 6 7 7 7 4 6 9 10 8 7 4 7 6 5 6 5 5 7 4 4 2
20 19 17 15 14 10 9 8 8 10 6 5 4 6 5 7 9 9 9 10 9 8 9 13 6 3 6 8 7 3 2 6 4 7 8 7 7 5 5 5 5 4 7 4 4 5 3
22 20 18 15 14 11 9 8 7 9 3 2 4 5 13 6 8 18 18 16 12 9 10 12 2 14 5 5 2 3 3 3 7 6 3 4 3 1 4 3 5 8 9 6 4 4 3

GFSGBSN_925_spd_138.txt.gz
Wind_Speed
10 11 16 15 14 21 27 28 25 25 25 23 20 20 17 16 16 15 13 12 10 12 10 10 13 15 8 6 5 7 3 1 4 6 6 8 9 8 10 10 12 14 14 15 16 11 13
11 13 13 15 18 19 14 22 30 27 28 24 23 24 21 17 17 16 16 13 10 12 10 9 11 13 8 10 5 7 4 3 3 6 4 6 6 8 9 11 10 14 14 15 17 18 15
11 13 14 16 19 17 19 18 19 25 32 28 24 27 25 20 19 18 16 15 13 12 10 9 9 8 10 12 2 5 4 3 2 4 7 2 8 7 11 9 6 9 14 17 19 19 7
13 13 14 18 18 18 15 17 19 20 21 34 30 29 26 22 20 19 15 16 13 12 11 10 9 5 6 2 6 7 8 6 4 4 6 6 8 11 11 9 7 10 13 12 2 6 4
14 14 15 19 19 17 18 17 16 17 19 21 36 32 29 27 22 19 15 14 12 10 12 6 5 6 8 6 11 11 9 9 4 5 6 7 8 10 8 10 11 13 9 9 8 6 7
13 15 15 17 19 19 20 21 20 17 19 19 24 37 29 30 25 20 14 10 8 3 3 5 10 6 10 7 11 8 8 5 7 6 7 9 7 7 8 8 9 10 9 13 14 13 14
13 15 16 18 21 22 23 25 23 20 19 18 19 32 35 30 26 18 9 6 5 6 11 9 6 9 0 6 11 11 11 9 7 7 11 14 7 11 13 4 8 8 12 15 14 13 11
15 16 17 17 19 23 25 25 24 20 18 19 18 21 36 34 28 19 13 4 6 3 7 22 22 13 11 11 9 12 14 8 11 12 17 8 15 9 4 4 6 9 13 15 13 11 10
14 15 17 19 22 23 25 26 26 25 23 21 19 21 33 33 25 20 17 7 4 7 2 9 16 17 13 11 14 14 14 14 12 13 13 14 10 3 5 9 10 12 11 12 13 14 15
17 21 22 22 23 23 26 30 31 32 31 25 20 23 34 32 18 14 11 16 8 12 2 8 14 10 22 13 12 21 20 14 11 12 14 10 2 5 6 10 10 11 7 6 12 11 11
21 23 26 27 25 26 28 31 34 35 35 35 28 24 42 43 13 14 10 21 15 4 4 3 14 5 20 17 4 14 16 10 13 15 4 5 7 6 7 10 2 7 8 10 14 14 15
21 23 25 26 28 29 32 33 37 37 37 38 32 28 46 34 19 16 31 29 13 4 9 6 11 14 21 19 14 15 13 11 8 13 11 15 5 4 10 2 7 10 11 15 16 13 9
23 24 25 27 30 32 35 37 39 41 43 41 36 37 53 34 13 36 39 16 3 6 9 9 14 17 22 20 19 14 17 16 10 8 14 15 14 7 5 7 9 7 11 6 3 6 8
23 22 25 27 30 33 37 39 44 49 49 42 42 44 53 32 40 47 31 2 6 15 22 3 15 19 19 19 21 17 17 16 21 12 7 12 7 14 11 4 5 4 6 5 5 6 11
21 22 25 28 33 37 41 47 53 55 51 43 41 47 38 32 51 44 10 5 9 11 16 9 13 20 20 21 10 17 18 17 14 13 7 8 5 12 7 3 3 3 5 7 7 14 11
20 22 23 27 33 37 45 54 55 49 31 38 44 34 22 48 47 34 6 13 12 13 10 18 20 19 21 22 14 11 15 13 8 6 3 2 6 10 10 3 9 8 5 4 4 4 8
18 20 21 24 29 37 48 51 35 27 34 61 33 9 21 42 40 10 6 12 12 17 14 19 22 19 23 22 16 12 12 6 11 9 6 5 4 8 6 7 8 9 5 4 6 6 6
16 16 17 18 21 28 25 15 14 40 67 50 7 5 31 47 9 5 10 13 14 18 17 16 16 10 13 17 18 16 14 7 9 11 6 4 5 6 11 6 3 3 2 2 2 7 7
14 13 11 10 6 21 32 41 33 40 19 13 4 7 16 33 8 11 9 12 10 19 18 16 13 21 18 13 14 13 13 8 10 10 5 7 5 5 4 6 7 4 4 3 6 7 10
13 9 7 2 4 10 16 25 20 21 15 6 5 5 4 4 3 18 15 18 11 14 18 25 17 15 10 13 10 14 14 9 9 7 6 2 3 3 2 3 4 4 4 3 4 5 6
13 9 6 6 7 9 10 14 16 20 21 7 1 6 9 12 7 16 16 15 24 25 15 15 14 18 14 12 12 13 17 12 10 5 5 2 3 6 6 4 9 2 5 5 2 2 3
13 10 7 6 12 12 13 6 11 14 21 6 2 5 11 18 14 19 13 17 19 15 14 15 9 13 12 10 8 15 16 13 8 8 8 5 2 2 6 10 11 5 7 4 5 3 2
15 12 9 9 11 14 17 5 12 10 14 5 5 5 7 15 18 13 14 21 21 16 9 15 15 11 9 9 3 12 13 12 7 13 10 7 4 4 9 13 7 3 2 1 8 5 4
14 14 11 8 9 12 17 5 8 6 10 5 5 3 3 10 12 12 22 23 22 18 12 11 9 10 11 14 15 10 9 6 12 11 10 7 6 1 4 10 3 2 4 4 9 4 2
17 14 13 10 11 14 10 7 5 7 11 6 2 3 2 5 9 17 19 16 15 12 9 8 9 12 10 12 10 7 5 4 6 8 6 6 5 3 3 7 5 6 9 6 6 6 5
20 16 13 11 12 12 9 5 4 6 9 7 2 4 2 6 8 17 15 19 12 11 8 12 9 7 7 5 4 7 6 7 7 8 12 8 5 5 5 8 3 7 7 4 6 4 4
21 19 15 12 11 9 7 1 5 5 7 8 4 4 5 3 12 15 13 14 12 13 8 11 8 5 6 4 5 5 6 14 9 9 6 6 5 8 7 4 5 6 8 8 4 4 4
22 20 16 13 11 8 5 4 8 5 8 10 3 6 1 5 12 8 16 11 12 9 8 12 7 4 5 6 5 2 2 5 6 12 10 8 6 5 7 6 5 4 10 4 7 6 6
22 20 15 13 12 10 8 6 7 5 6 11 3 7 13 7 8 24 24 17 16 9 9 9 2 11 5 4 2 2 2 2 9 4 10 2 1 1 4 4 9 9 13 10 7 8 6

GFSGBSN_925_spd_141.txt.gz
Wind_Speed
12 17 16 14 13 12 17 20 22 22 20 18 17 15 15 16 15 14 13 14 15 15 11 13 16 18 9 3 6 6 3 0 2 5 11 5 5 3 3 6 10 4 4 8 8 8 6
10 10 11 13 15 15 15 13 16 22 23 21 20 18 16 18 16 14 14 14 16 15 14 10 13 16 4 5 2 2 2 2 3 7 9 5 5 6 4 5 4 7 8 8 7 10 6
8 10 10 11 13 12 12 12 15 13 19 23 23 22 19 18 18 16 11 15 16 17 12 11 11 8 6 11 2 4 4 4 3 5 6 8 5 5 8 6 5 8 7 9 16 10 7
9 9 11 13 13 13 12 11 10 13 13 14 22 24 21 20 19 16 12 13 15 16 14 12 12 2 7 8 11 8 7 5 5 5 5 6 3 3 3 4 6 4 3 2 7 7 8
10 11 10 10 12 13 12 10 10 10 11 13 13 21 23 23 20 17 16 15 12 12 13 10 9 5 7 3 7 12 10 13 12 3 6 5 3 4 3 3 5 4 4 6 4 3 5
8 10 11 12 13 11 12 11 12 12 11 12 12 14 21 21 23 20 18 15 13 7 8 5 13 5 6 6 7 11 10 4 2 6 3 4 3 2 1 3 4 4 4 5 4 6 2
10 10 10 11 12 15 16 14 14 16 15 11 10 10 13 22 26 22 15 3 4 2 1 9 6 5 3 11 10 7 10 5 7 3 4 5 3 6 8 5 2 4 3 4 6 9 2
12 10 10 12 11 12 13 14 17 18 15 11 8 7 9 17 26 20 11 2 5 3 1 20 23 18 24 6 6 8 13 6 6 7 7 4 10 13 9 2 3 3 6 7 8 3 5
10 10 10 12 13 15 16 16 16 18 16 14 9 6 6 18 22 15 10 8 6 8 2 9 10 9 10 14 9 11 15 7 5 10 10 8 9 6 3 4 6 5 6 8 3 5 5
12 12 14 15 14 15 16 16 18 18 20 18 16 5 8 27 12 15 5 11 8 4 2 7 7 8 13 6 6 19 24 8 8 8 7 9 13 6 6 6 5 6 6 5 4 4 3
15 15 14 15 15 17 18 18 17 19 22 23 20 11 19 23 11 12 10 19 13 2 3 5 6 8 10 16 2 14 24 6 7 7 4 7 3 4 4 5 7 4 6 4 4 6 3
17 16 16 16 17 18 18 20 21 20 22 23 20 16 20 25 17 12 15 24 6 2 8 5 6 7 10 13 6 5 9 3 2 7 10 9 4 6 6 8 5 4 6 11 9 3 1
17 17 18 18 19 19 19 19 23 23 24 24 20 18 27 30 10 19 28 12 2 5 5 10 4 5 14 8 11 10 10 7 6 4 5 6 11 6 5 2 5 7 3 3 2 1 5
18 18 18 18 21 20 22 25 28 29 28 25 24 23 25 38 24 35 24 2 7 10 13 2 8 8 14 11 10 12 12 10 14 8 1 8 4 13 8 7 2 6 4 4 3 0 4
17 18 18 19 21 22 25 30 34 36 36 30 25 28 30 41 35 40 10 8 9 9 12 18 9 9 15 14 7 13 11 15 14 16 5 4 9 8 13 5 5 3 4 3 1 4 3
17 16 16 18 19 21 26 31 37 42 43 30 29 24 34 42 44 31 10 16 14 15 17 9 17 12 10 18 12 10 9 10 16 15 9 2 3 10 6 3 7 4 0 1 0 1 3
17 16 15 15 16 17 23 27 39 37 33 32 29 8 20 47 41 10 12 11 20 15 17 12 19 9 9 12 17 6 5 7 9 5 7 0 2 5 7 6 6 3 2 1 2 3 3
18 16 13 12 12 11 16 23 38 12 14 35 13 8 34 56 10 8 16 25 14 20 19 11 9 13 3 14 11 10 9 5 7 8 6 1 2 3 6 7 4 4 5 4 4 1 1
18 16 12 10 7 5 15 19 26 28 13 12 10 3 35 51 15 12 7 15 17 20 15 12 8 10 18 7 5 7 6 3 9 6 4 5 2 2 3 4 3 2 5 5 4 3 4
18 15 12 10 7 3 11 13 21 22 15 7 3 5 4 10 3 17 17 14 17 13 17 14 13 4 6 5 2 6 5 2 6 6 5 2 1 5 6 4 3 5 6 6 4 2 2
18 14 12 10 9 10 5 9 12 17 13 5 1 3 4 12 5 15 20 15 21 11 10 13 3 6 5 5 7 6 6 7 5 2 3 2 2 3 3 7 4 3 6 7 3 3 2
17 14 11 10 9 12 3 8 9 13 9 3 1 4 1 12 7 13 17 14 22 19 12 16 8 11 10 6 14 15 11 5 5 3 5 2 2 3 6 4 9 4 4 10 6 4 6
16 15 13 10 9 11 9 2 6 13 7 3 4 3 5 13 10 10 14 12 18 13 6 14 10 9 14 10 4 7 7 10 7 8 7 6 3 2 3 11 6 2 4 4 7 5 2
16 15 13 9 10 8 7 6 2 4 8 3 4 3 2 6 10 10 16 12 13 6 4 4 5 5 3 14 14 11 8 4 9 9 6 6 4 2 4 6 3 3 1 6 9 4 3
17 15 13 9 8 8 8 1 2 5 10 2 2 2 1 5 10 11 15 9 9 6 5 2 2 6 7 7 8 6 3 2 6 11 8 3 4 2 3 1 3 6 6 6 5 5 6
19 15 14 9 9 8 11 3 3 6 8 4 4 3 1 3 9 7 13 16 9 8 5 4 3 6 5 3 3 4 4 5 5 5 5 2 3 3 1 3 5 1 10 9 6 2 5
20 17 15 12 8 6 7 3 4 3 7 10 6 4 1 2 5 13 7 17 6 6 4 4 4 3 4 3 2 4 5 9 7 8 6 4 2 3 2 1 2 6 9 8 4 5 9
21 18 15 13 12 9 7 6 5 6 9 11 9 7 4 3 2 5 7 9 3 7 5 6 4 2 2 3 5 4 3 6 4 6 7 4 4 3 3 2 4 8 8 5 5 8 9
20 19 16 13 11 9 7 5 6 5 7 9 8 5 7 4 6 22 16 13 1 10 8 4 6 5 4 3 2 1 1 3 5 3 5 3 4 4 2 3 4 9 9 9 7 9 9

GFSGBSN_925_spd_144.txt.gz
Wind_Speed
12 15 14 12 13 13 17 19 20 18 17 16 15 13 13 13 11 12 9 9 12 14 14 15 15 16 7 4 6 4 2 2 3 7 8 6 5 3 2 3 6 4 3 7 8 4 3
10 10 11 12 13 11 13 12 14 17 20 20 18 15 14 14 13 11 13 10 10 13 13 13 14 12 4 4 2 1 2 2 4 5 8 6 1 2 3 3 0 4 5 7 6 7 4
10 10 10 9 10 9 8 8 12 14 13 18 20 18 17 17 14 13 12 11 9 11 10 10 12 9 1 11 5 4 1 2 2 4 3 6 5 4 4 5 3 4 6 8 9 2 3
10 9 9 11 11 10 8 7 6 8 11 13 14 18 19 19 16 13 13 13 11 10 9 8 9 3 6 6 11 13 6 4 5 3 4 5 4 1 2 5 6 2 3 2 7 7 2
9 9 9 8 7 10 8 6 4 4 7 8 11 14 17 17 18 16 14 14 12 11 9 6 2 2 9 6 7 14 12 7 8 8 5 6 1 3 1 2 3 2 3 3 5 4 3
9 8 8 9 9 9 8 7 6 6 5 6 8 10 15 15 12 17 16 13 11 11 2 1 2 3 7 5 6 9 13 5 0 1 3 3 0 1 2 2 3 2 1 0 1 3 0
10 9 9 8 7 9 10 9 7 9 8 8 7 8 10 12 15 13 13 3 2 1 3 7 5 3 2 7 6 5 12 4 2 2 3 3 2 7 9 7 5 4 3 3 3 3 5
11 11 10 8 7 6 7 7 8 10 10 8 6 4 7 7 14 15 8 4 2 3 5 16 14 16 23 14 5 6 13 6 5 7 3 3 8 13 8 6 6 3 2 4 5 3 4
13 10 9 8 6 7 8 8 8 9 10 9 6 4 5 10 9 8 7 6 7 4 3 6 9 7 8 12 10 10 13 7 6 6 8 7 6 4 9 6 4 3 3 3 5 3 0
14 11 10 8 8 7 8 9 7 9 9 11 9 3 5 12 7 9 4 10 10 7 2 6 6 9 10 6 9 19 24 7 6 11 6 8 14 13 7 5 6 3 2 3 3 3 3
16 14 12 9 8 8 8 7 8 6 10 11 11 7 12 15 9 7 4 14 11 1 1 5 5 2 5 11 5 12 23 8 10 8 7 8 1 3 4 5 5 5 4 3 3 2 2
18 16 14 12 10 9 8 7 7 7 8 11 12 10 13 20 7 3 10 14 5 3 9 5 5 5 5 7 3 2 8 5 5 3 6 7 4 5 7 5 5 3 2 3 2 4 2
19 15 15 13 10 9 9 8 8 8 9 11 15 15 20 19 6 13 21 8 3 4 4 5 4 6 7 8 9 2 13 15 8 6 9 3 11 5 5 3 0 3 5 2 2 0 4
19 17 16 14 11 10 10 10 9 10 10 13 16 19 22 21 12 20 20 3 4 9 14 4 3 4 10 7 8 5 7 13 6 2 2 7 5 11 7 9 6 7 8 5 4 3 3
21 18 16 14 11 11 11 10 11 12 16 17 17 21 25 25 26 27 7 8 8 9 10 10 12 4 5 5 6 8 8 14 11 8 6 4 6 3 13 5 9 4 5 7 3 0 2
21 18 16 14 12 11 9 11 13 13 18 22 24 18 26 25 30 21 7 18 10 18 4 3 7 9 7 8 6 7 6 7 11 13 11 3 3 3 4 5 3 3 2 3 2 2 4
22 19 17 15 12 8 6 9 12 15 24 32 21 4 9 32 32 6 13 16 22 15 11 5 6 6 10 8 13 5 8 5 18 11 15 9 2 3 5 4 8 3 2 3 4 4 4
24 22 19 15 11 7 8 8 11 16 10 46 13 6 32 45 9 9 19 22 14 10 14 16 8 10 14 2 10 15 10 7 6 8 10 3 3 4 6 6 7 5 6 5 4 4 2
25 22 20 15 11 10 8 5 8 10 19 27 5 3 38 37 13 15 19 20 22 18 15 16 10 9 5 9 3 13 8 1 9 4 7 5 4 1 1 3 3 4 4 5 6 3 4
23 22 20 15 13 12 5 2 7 4 5 15 3 4 2 10 4 25 23 20 27 23 17 14 10 11 3 7 6 4 2 2 4 4 8 4 3 5 9 5 4 5 6 6 6 3 3
23 24 20 17 14 15 13 5 2 4 6 6 1 3 3 9 13 19 23 16 21 20 23 14 16 17 11 7 11 7 3 5 5 3 4 4 3 2 4 3 4 5 12 8 4 5 5
23 23 20 18 15 15 13 8 5 2 6 3 3 3 3 3 7 12 21 24 23 20 17 23 16 13 12 9 10 8 7 4 4 3 2 3 2 3 4 7 6 4 7 8 5 5 6
24 22 20 17 14 13 14 10 7 1 6 4 6 6 2 7 6 6 11 19 17 18 10 22 16 10 10 8 7 6 6 6 6 5 3 5 4 2 4 8 6 3 7 7 4 3 6
25 23 20 16 13 13 14 12 9 9 4 7 6 3 3 4 9 7 13 13 19 22 19 6 9 18 5 6 7 8 7 8 11 12 10 7 5 2 3 5 4 3 1 3 8 3 7
25 21 19 16 13 13 13 13 14 11 4 5 7 4 2 2 9 9 12 17 8 12 3 1 2 6 7 7 8 5 3 3 7 10 8 4 4 3 5 3 1 3 5 6 6 6 6
24 21 18 15 12 12 14 9 13 6 4 5 12 5 2 2 9 18 13 17 5 5 3 2 5 3 7 4 4 5 5 5 5 6 6 5 3 4 3 3 6 1 7 7 5 3 8
23 20 18 15 12 12 18 8 8 5 4 5 6 9 3 2 3 5 11 14 6 5 5 2 3 5 6 2 2 2 3 6 6 7 6 4 1 4 3 2 1 4 10 5 4 5 5
22 20 19 17 12 13 13 10 8 6 6 6 6 8 3 2 1 3 4 6 5 4 5 5 4 2 3 4 3 4 3 5 4 5 7 5 5 3 3 3 5 10 5 5 5 5 10
25 22 18 17 14 12 10 10 9 7 4 7 3 7 13 1 2 7 9 9 9 6 7 4 5 4 4 3 1 1 2 2 6 3 2 2 5 5 1 3 2 2 2 7 6 9 5

GFSGBSN_925_spd_147.txt.gz
Wind_Speed
16 15 13 12 13 16 19 20 21 18 15 14 13 13 12 11 10 10 10 11 12 15 15 15 16 18 8 5 6 4 2 2 3 5 7 3 4 3 3 4 6 2 4 6 4 4 2
14 14 13 14 14 13 14 12 14 17 19 18 18 17 14 11 11 11 11 12 12 12 13 14 15 15 4 3 2 2 3 3 3 4 6 5 2 2 0 3 1 5 5 8 6 6 3
12 12 12 11 11 11 8 9 11 11 12 14 17 18 17 15 12 11 12 11 13 13 12 13 12 10 1 10 3 3 2 2 1 2 1 3 3 4 1 4 4 6 6 8 4 2 5
13 12 12 11 12 10 8 8 8 11 13 13 14 15 17 15 14 14 12 13 12 12 11 11 11 4 6 5 9 9 7 5 4 2 0 1 4 3 3 2 6 5 3 4 5 1 3
13 12 11 10 10 11 9 7 5 5 7 10 12 13 13 15 14 14 13 12 13 12 11 9 4 2 8 6 6 10 12 5 3 6 2 1 3 2 3 3 4 2 3 3 6 5 2
13 12 12 12 10 11 10 8 7 5 5 4 8 9 10 12 11 9 10 11 12 13 2 3 1 3 5 3 2 2 12 8 1 2 3 3 4 3 3 3 4 4 3 3 3 5 8
14 14 13 10 10 11 13 11 10 10 8 5 5 7 7 7 11 9 5 4 4 2 3 8 2 4 4 10 2 2 8 5 2 3 3 1 3 7 10 8 2 2 2 3 3 5 5
14 15 14 12 9 8 9 10 12 11 9 6 4 4 4 4 8 7 3 2 3 1 7 14 15 9 19 4 3 3 12 6 3 6 2 2 7 10 6 5 4 5 6 5 4 3 6
16 15 14 12 11 11 10 8 9 9 9 8 4 1 3 6 6 6 5 3 1 3 4 6 7 7 7 14 10 7 10 6 6 6 7 7 6 3 8 6 6 5 6 5 6 1 6
17 15 14 14 12 9 8 8 7 9 10 11 6 2 8 10 7 6 4 7 4 0 2 5 5 7 8 8 8 18 22 7 5 10 5 8 10 10 6 6 8 6 6 6 6 4 5
19 17 16 14 10 9 8 7 8 8 13 11 10 5 9 10 10 5 1 10 7 1 3 3 4 4 5 8 1 6 20 3 11 7 6 8 3 7 12 8 7 7 6 7 4 3 1
24 20 19 16 12 9 7 7 9 9 10 13 10 7 12 12 6 2 10 13 3 5 8 5 4 4 5 5 2 2 4 3 4 2 5 5 2 3 4 5 8 7 5 5 4 4 3
25 22 22 19 14 11 9 8 9 9 9 13 12 12 15 13 6 6 15 4 3 4 4 4 4 5 4 5 4 2 10 11 10 5 12 4 11 4 4 2 1 4 6 1 1 0 6
25 24 21 19 16 13 10 9 9 9 9 12 15 13 15 15 12 13 10 4 4 7 8 3 4 4 5 4 4 5 4 8 9 3 3 7 5 11 8 9 6 6 7 5 6 4 3
26 25 22 19 16 14 11 10 10 9 10 11 11 14 14 20 15 19 4 4 9 7 5 2 5 2 3 5 6 5 6 8 9 11 8 5 6 2 5 5 12 5 5 6 4 2 2
29 26 23 20 17 15 12 10 11 11 10 12 13 10 13 24 22 12 5 17 8 6 2 4 6 7 7 6 7 7 5 6 10 16 3 2 5 2 1 4 1 6 6 3 1 4 4
29 28 26 22 20 16 13 12 11 9 10 13 12 3 13 30 23 5 15 12 13 5 5 5 5 3 4 4 7 5 6 6 9 10 14 12 3 5 2 4 8 3 3 3 4 3 4
32 28 25 24 20 16 14 11 11 10 12 18 10 4 23 39 10 9 19 16 10 6 12 8 5 6 5 2 4 7 10 9 4 8 11 7 3 12 10 4 3 7 5 5 4 4 2
31 29 27 25 21 18 17 13 11 10 15 18 6 3 26 32 12 16 18 26 23 9 13 11 13 9 7 7 5 7 11 4 6 8 8 8 3 1 5 4 1 3 3 4 4 3 5
33 30 29 26 22 19 19 16 11 10 15 19 4 4 3 11 4 16 18 25 27 11 18 16 5 10 4 9 10 5 4 2 3 2 8 6 4 5 8 2 3 4 4 4 6 4 4
30 27 29 27 24 21 21 17 12 13 13 13 2 3 4 7 12 15 16 8 26 23 21 10 15 21 15 13 5 7 5 1 4 4 2 4 6 7 11 2 3 5 12 11 6 5 6
29 28 29 28 24 23 24 20 15 13 14 6 4 3 1 1 1 19 23 22 24 24 21 26 19 14 13 14 13 6 7 6 5 2 2 3 1 2 4 8 7 5 10 9 4 5 5
30 30 30 27 25 24 25 23 20 17 15 4 6 5 2 4 6 6 13 19 24 16 14 21 26 17 17 20 11 10 6 4 5 5 3 3 4 3 4 9 2 3 7 8 4 3 7
30 30 30 27 26 23 24 23 21 17 15 9 5 3 3 3 10 15 10 17 20 22 21 17 16 23 12 6 4 4 1 6 5 3 5 4 4 4 2 6 7 4 2 2 5 2 3
29 29 29 28 25 23 22 25 23 18 19 16 10 6 4 3 8 13 16 10 15 18 18 19 9 12 10 4 4 4 1 3 4 8 10 13 8 3 3 5 2 1 4 7 7 6 5
27 29 29 26 24 22 22 22 21 20 21 16 17 20 4 2 6 14 9 12 7 10 9 4 3 2 7 3 3 5 4 4 5 6 12 10 7 5 2 4 5 2 4 5 3 3 12
28 29 27 25 23 22 22 22 21 23 15 13 9 21 5 3 3 8 7 7 5 5 4 4 2 1 3 3 2 2 3 5 6 8 7 6 2 9 3 2 4 2 7 5 4 5 10
28 29 25 23 21 20 22 20 17 15 13 9 6 19 9 2 3 4 9 5 4 5 5 5 3 4 3 3 3 3 3 4 4 4 7 8 6 3 2 3 5 7 4 5 4 4 8
29 27 24 24 19 18 22 19 16 14 11 8 5 14 17 4 3 5 3 1 1 3 4 2 4 5 4 3 3 1 1 1 5 3 2 2 5 5 3 3 2 3 1 4 4 8 5

GFSGBSN_925_spd_150.txt.gz
Wind_Speed
15 13 12 13 14 15 20 23 18 17 17 14 13 12 11 9 10 10 10 13 15 16 17 20 20 22 10 5 4 4 3 4 4 5 6 3 4 2 3 2 4 2 1 3 2 4 4
15 15 15 15 14 15 15 14 16 19 19 17 15 13 13 12 10 10 10 11 14 15 16 17 19 20 4 5 2 2 3 5 3 4 6 5 3 1 4 2 1 2 3 6 6 3 4
16 16 16 16 17 16 14 15 15 14 14 14 16 16 15 13 12 12 11 10 11 13 14 15 16 13 2 11 4 3 2 2 2 3 1 3 3 4 2 1 2 2 5 6 3 4 5
13 13 14 14 13 12 11 11 15 18 16 14 13 13 14 15 13 12 12 11 11 11 14 13 13 6 6 6 8 9 7 2 2 2 2 3 4 4 2 2 5 3 4 3 2 5 3
15 14 15 13 13 14 13 11 10 10 11 12 12 12 13 13 14 11 11 11 10 10 11 10 5 3 8 9 6 7 9 4 2 2 2 1 3 3 4 4 4 5 2 2 6 3 4
17 15 14 12 12 13 12 10 9 8 7 6 8 9 9 9 9 10 8 7 9 11 2 3 2 2 4 4 6 6 8 3 2 2 4 5 5 3 3 3 4 5 3 3 4 1 9
16 15 13 14 14 12 11 12 10 9 7 5 4 6 7 7 10 9 4 3 4 1 1 6 3 3 3 7 1 1 1 5 2 4 3 2 1 7 9 7 2 2 2 2 3 2 6
16 16 16 14 12 12 14 14 12 9 9 6 4 3 4 5 6 9 4 2 1 2 6 12 12 6 14 3 2 2 7 3 2 4 2 2 6 7 4 5 4 3 3 5 4 1 5
19 18 15 15 13 10 12 12 12 13 12 8 4 1 4 6 10 7 6 3 1 1 3 6 6 6 6 12 9 7 9 5 4 4 6 6 3 5 5 3 4 3 5 3 5 3 4
24 21 19 18 15 17 15 13 9 9 9 11 6 4 9 8 6 5 3 5 3 1 3 5 3 5 3 6 5 16 18 8 3 6 5 5 7 6 2 4 8 6 8 6 4 3 4
26 22 19 19 21 17 15 13 12 10 14 13 9 6 12 6 8 5 2 7 3 2 3 1 3 2 2 8 0 3 4 2 10 8 6 8 2 2 4 7 5 7 6 7 4 3 2
27 23 21 21 19 16 14 12 12 10 15 13 12 9 14 6 4 1 7 10 2 6 7 2 4 4 5 3 3 2 3 3 2 3 4 5 1 4 7 4 10 4 5 6 4 3 3
28 23 23 23 20 17 14 12 13 12 13 14 14 10 12 8 2 5 13 3 4 4 4 1 2 3 1 2 1 1 4 5 6 3 4 2 10 4 4 2 2 5 5 1 1 1 7
30 25 26 26 23 19 15 12 13 13 12 14 13 13 11 12 4 7 3 5 4 4 5 3 3 3 3 3 4 5 5 4 7 1 1 3 6 10 7 14 8 7 7 4 5 4 3
31 27 27 28 25 20 16 13 13 13 12 17 16 14 7 15 8 9 4 2 7 6 4 2 3 1 2 3 4 2 5 5 7 12 7 3 6 4 3 4 13 6 10 7 4 2 1
33 30 30 27 25 22 17 15 13 13 13 16 16 9 7 17 12 4 2 8 5 4 2 1 6 5 6 5 5 4 5 4 5 12 8 5 5 2 3 3 1 8 8 3 1 4 5
35 34 32 29 27 22 19 16 16 15 16 18 12 3 11 20 12 1 10 7 3 4 0 3 4 5 6 5 6 4 6 5 5 4 15 13 3 6 3 2 4 3 3 1 4 4 4
37 35 35 33 29 24 22 18 18 16 18 24 9 2 14 26 6 4 12 5 3 2 4 4 2 5 5 2 2 4 6 6 3 4 7 8 2 10 17 12 2 6 6 6 6 6 1
39 37 35 33 31 27 24 22 21 20 22 12 6 3 11 19 8 12 10 12 11 6 5 4 5 6 4 5 4 6 8 5 9 6 6 5 2 9 7 1 8 8 5 3 3 2 6
41 40 36 34 32 29 25 24 21 22 23 13 3 4 3 6 5 9 16 17 19 4 16 16 6 7 6 9 7 6 4 4 5 7 7 6 6 8 9 3 1 6 6 4 3 6 4
40 38 38 36 34 30 26 27 24 22 21 24 3 4 5 6 14 14 12 5 12 11 11 12 8 18 9 8 10 7 9 5 3 4 4 5 3 3 7 11 4 4 10 10 13 13 5
40 36 37 36 35 31 28 28 24 21 18 10 4 3 1 1 6 21 19 15 23 12 9 11 18 18 15 21 17 6 9 5 7 2 3 5 7 2 4 5 7 8 17 17 15 2 3
40 35 37 36 34 32 30 29 26 21 20 4 4 3 3 5 4 10 20 23 24 15 15 24 20 16 18 20 16 11 9 5 6 6 6 3 3 2 10 4 3 8 12 11 5 4 7
38 38 36 37 35 32 31 30 30 26 22 7 5 4 3 5 7 9 6 14 22 22 25 10 16 17 21 10 2 2 4 8 9 5 6 5 4 3 2 4 7 4 1 2 8 3 3
39 36 36 35 35 32 31 32 31 28 24 19 10 3 3 6 6 7 14 12 14 14 22 20 15 20 7 8 6 6 3 1 3 5 5 3 5 3 2 3 4 2 4 7 7 6 6
37 35 33 34 34 33 31 31 32 30 24 20 19 16 4 4 7 8 8 11 10 9 6 9 11 10 4 5 3 6 4 3 4 3 9 7 5 3 2 3 3 2 3 4 3 5 12
34 33 33 35 34 31 29 29 32 30 25 22 10 24 8 3 4 3 4 3 4 4 2 3 7 5 8 4 3 3 3 3 5 7 4 4 3 7 5 4 5 3 6 4 5 5 11
32 32 34 34 30 28 27 27 29 29 26 25 11 21 15 3 7 6 5 9 4 4 4 3 5 2 2 4 3 3 3 4 3 2 6 6 6 4 5 4 7 5 4 6 4 4 8
32 31 32 30 28 26 27 27 27 25 25 23 6 14 24 6 3 5 14 17 19 12 3 3 2 3 4 3 3 3 3 2 6 2 4 5 6 4 6 5 1 3 1 3 5 6 5